Flag for U.S.A. Weather past 2 weeks in Madison, Wisconsin, U.S.A.

Now
12 °F

Partly sunny.


Feels Like: -1 °F
Forecast: -10 / 18 °F
Wind: 10 mph from Southwest

Location: Dane County Regional-Truax Field

Current Time: Feb 28, 2015 at 12:36:11 PM

Latest Report: Feb 28, 2015 at 11:53 AM


Visibility: 10 mi

Pressure: 30.69 "Hg

Humidity: 46%

Dew point: -5 °F

Location of MadisonLocation

Historic Weather in Madison — Graph

°F

Madison temperature yesterday

Maximum temperature yesterday: 16 °F (at 3:53 PM)
Minimum temperature yesterday: -4 °F (at 6:53 AM)
Average temperature yesterday: 5 °F

Past Weeks' High & Low Weather Summary

 TemperatureHumidityPressure
High35 °F (Feb 24, 3:53 PM)84% (Feb 17, 2:53 AM)30.78 "Hg (Feb 17, 2:53 AM)
Low-12 °F (Feb 23, 5:53 AM)34% (Feb 24, 6:53 PM)29.64 "Hg (Feb 24, 3:53 PM)
Average9 °F59%30.25 "Hg
* Reported Feb 13 10:53 AM — Feb 28 10:53 AM, Madison, Weather by CustomWeather, © 2015

Note: Actual official high and low records may vary slightly from our data, if they occured in-between our weather recording intervals... More about our weather records

Advertising

Madison weather history for previous 24 hours

 ConditionsComfort  
Time TempWeatherWind HumidityBarometerVisibility
10:53 AM
Sat, Feb 28
10 °FScattered clouds.12 mph55%30.71 "Hg10 mi
9:53 AM6 °FPassing clouds.8 mph63%30.72 "Hg10 mi
8:53 AM3 °FSunny.7 mph69%30.73 "Hg10 mi
7:53 AM-2 °FSunny.7 mph75%30.72 "Hg10 mi
6:53 AM-8 °FPassing clouds.5 mph78%30.72 "Hg10 mi
5:53 AM-8 °FClear.No wind74%30.70 "Hg10 mi
4:53 AM-7 °FClear.No wind83%30.68 "Hg10 mi
3:53 AM-7 °FClear.No wind79%30.67 "Hg10 mi
2:53 AM-3 °FClear.No windN/A30.67 "Hg10 mi
1:53 AM-2 °FClear.No wind72%30.68 "Hg10 mi
12:53 AM-1 °FClear.No wind68%30.68 "Hg10 mi
11:53 PM
Fri, Feb 27
1 °FClear.No wind65%30.67 "Hg10 mi
10:53 PM3 °FClear.No wind62%30.67 "Hg10 mi
9:53 PM5 °FClear.3 mph60%30.67 "Hg10 mi
8:53 PM5 °FClear.5 mph60%30.66 "Hg10 mi
7:53 PM6 °FClear.3 mph57%30.65 "Hg10 mi
6:53 PM8 °FClear.6 mph54%30.63 "Hg10 mi
5:53 PM11 °FClear.5 mph51%30.60 "Hg10 mi
4:53 PM14 °FSunny.7 mph44%30.59 "Hg10 mi
3:53 PM16 °FSunny.6 mph40%30.60 "Hg10 mi
2:53 PM15 °FSunny.7 mph42%30.60 "Hg10 mi
1:53 PM14 °FSunny.7 mph42%30.60 "Hg10 mi
12:53 PM13 °FSunny.6 mph42%30.61 "Hg10 mi
Weather by CustomWeather, © 2015

See weather overviewHow to use our weather pages